Regional Weather Roundup
Issued by NWS Charleston, SC

Current Version | Previous Version | Graphics & Text | Print | Product List | Glossary On
Versions: 1 2 3 4 5 6 7 8 9 10 11 12 13 14 15 16 17 18 19 20 21 22 23 24 25 26 27 28 29 30 31 32 33 34 35 36 37 38 39 40 41 42 43 44 45 46 47 48 49 50
000
ASUS42 KCHS 212125
RWRCHS

REGIONAL WEATHER ROUNDUP
NATIONAL WEATHER SERVICE CHARLESTON SC
400 PM EST SUN DEC 21 2014

NOTE: "FAIR" INDICATES FEW OR NO CLOUDS BELOW 12,000 FEET WITH NO
SIGNIFICANT WEATHER AND/OR OBSTRUCTIONS TO VISIBILITY.

NOT ALL STATIONS ARE QUALITY CONTROLLED BY THE NATIONAL
WEATHER SERVICE. USE DATA WITH CAUTION...ESPECIALLY
DEWPOINT OBSERVATIONS.

SCZ027-030-031-034>040-042>050-212200-
...SOUTHEAST SOUTH CAROLINA...

CITY           SKY/WX    TMP DP  RH WIND       PRES   REMARKS
N CHARLESTON   CLOUDY    48  43  82 NE9       30.16F
WATERFRONT PRK NOT AVBL
MOUNT PLEASANT CLOUDY    50  45  81 N5        30.16S
PINOPOLIS        N/A     50  43  76 E6        30.09F
MONCKS CORNER  CLOUDY    48  43  81 NE6       30.16S
SUMMERVILLE    CLOUDY    46  46 100 N3        30.17S
BEAUFORT MCAS  CLOUDY    48  45  89 NE7       30.13F
BEAUFORT ARPT  CLOUDY    48  45  87 NE10      30.12F
HILTON HEAD IS PTSUNNY   50  45  81 NE10      30.14S
WALTERBORO     CLOUDY    46 N/A N/A NE6       30.15S
ALLENDALE      CLOUDY    50  43  76 VRB5      30.14S

...SOUTHERN MIDLANDS AND PEE DEE...

CITY           SKY/WX    TMP DP  RH WIND       PRES   REMARKS
GEORGETOWN     NOT AVBL
KINGSTREE      NOT AVBL
ORANGEBURG     CLOUDY    52  40  63 NE7       30.16R
BARNWELL       CLOUDY    52  45  76 NE7       30.15S
AIKEN          CLOUDY    52  41  66 E8        30.17S
MANNING        NOT AVBL
COLUMBIA       CLOUDY    54  40  59 E12       30.16S
SUMTER         CLOUDY    53  40  63 NE8       30.16
FLORENCE       CLOUDY    53  39  59 E7        30.18S
MYRTLE BEACH   CLOUDY    52  39  62 NE12      30.19S
N MYRTLE BEACH CLOUDY    51  39  63 NE14      30.17F

$$

GAZ063-065-086>088-099>101-113>116-118-119-134>141-150-212200-
...SOUTHEAST GEORGIA...

CITY           SKY/WX    TMP DP  RH WIND       PRES   REMARKS
SAVANNAH ARPT  CLOUDY    48  45  89 E6        30.12S
HUNTER AAF     CLOUDY    48  46  93 NE8       30.10S
FORT STEWART   CLOUDY    48  46  93 NE6       30.09F
STATESBORO     CLOUDY    48  48 100 NE3       30.13R
SYLVANIA       CLOUDY    47  46  93 E6        30.13F
CLAXTON        CLOUDY    46  46 100 E6        30.12R FOG

...CSRA...CENTRAL AND FAR SOUTHEAST GEORGIA...

CITY           SKY/WX    TMP DP  RH WIND       PRES   REMARKS
THOMSON        CLOUDY    56  47  72 E6        30.17S
AUGUSTA-BUSH   CLOUDY    54  41  61 E9        30.14S
AUGUSTA-DANIEL CLOUDY    56  42  59 E13       30.14S
SWAINSBORO     CLOUDY    50  50 100 NE7       30.12F
VIDALIA        CLOUDY    50  46  87 NE9       30.10S
EASTMAN        CLOUDY    49  49 100 NE5       30.12R FOG
HAZLEHURST     DRIZZLE   51  51 100 NE6       30.08R
ALMA           CLOUDY    51  49  92 NE5       30.08R FOG
WAYCROSS       RAIN      55  54  98 NE5       30.07S
JESUP          CLOUDY    54  52  94 E8        30.09S FOG
BAXLEY         DRIZZLE   52  50  93 NE6       30.08S
BRUNSWICK      CLOUDY    54  50  87 NE10G16   30.08S
SAINT SIMONS   CLOUDY    54  52  93 NE15G23   30.07S FOG

$$

SCZ027-028-034-036>038-045-046-048>050-GAZ119-141-212200-
...LAKE AND SUPPLEMENTAL COASTAL OBSERVATIONS...

STATION/POSITION TIME  TEMP    WIND        PRES    WAVE   SWELL
                       AIR SEA DIR/SP/G            HT/PER HT/PER/DIR
                 (UTC) (F)     (DEG/KT/KT) (MB)    (FT/S) (FT/S/D)
UPR LAKE MARION  NOT AVBL
WINYAH BAY       2100   49      40/ 10     1021.0S
LAKE MURRAY      2000   54      60/  4/  8 1020.7S
ACE BASIN NERRS  2100   48      30/  3     1020.0S
FORT PULASKI     2100   50 56   50/ 14/ 18 1019.9F
SAPELO ISLAND    2100   53      30/ 13     1018.0S

$$

ANZ835-935-AMZ111-154-330-350-352-354-370-450-454-472-212200-
...C-MAN AND BUOY OBSERVATIONS...

STATION/POSITION TIME  TEMP    WIND        PRES    WAVE   SWELL
                       AIR SEA DIR/SP/G            HT/PER HT/PER/DIR
                 (UTC) (F)     (DEG/KT/KT) (MB)    (FT/S) (FT/S/D)
BUOY 41004       2100   62 69   40/ 21/ 25 1018.7S   7/ 6   2/16
BUOY 41008       2100   56 59   40/ 21/ 25 1017.9F   5/ 7   2/ 90/12
FOLLY BEACH CMAN 2100   50      30/ 20/ 22 1021.1F
CAPERS NEARSHORE 2000   50      60/ 19/ 23   N/A
FRIPP NEARSHORE  NOT AVBL


STATION/POSITION TIME  TEMP    WIND        PRES    WAVE   SWELL
                       AIR SEA DIR/SP/G            HT/PER HT/PER/DIR
                 (UTC) (F)     (DEG/KT/KT) (MB)    (FT/S) (FT/S/D)
5E ST. MARYS GA  2100      61                N/A     5/ 5
FRYING PAN BUOY  2100   57 70   50/ 21/ 27 1021.1S   7/ 6
BUOY 41025       2100   54                 1023.2F   3/ 5
CAPE LOOKOUT NC  2100   48      40/ 18/ 22 1023.0F
BUOY 41002       2012   69 71  330/  6/  8 1018.4R   7/ 7   7/ 80/ 7
BUOY 41010       2100   75 77  190/ 10/ 12 1018.0R   3/ 8   3/ 30/ 8
ST AUGUSTINE FL  2100   63     350/  9/  9 1017.5R


$$


USA.gov is the U.S. government's official web portal to all federal, state and local government web resources and services.